Tampa Knight Airport, FL

12:26 PM EDT on April 28, 2017 (GMT -0400)
Knight

Weather History for KTPF - April, 2014

Change the Weather History Date:

Saturday, April 12, 2014

  Actual Average (KTPA) Record (KTPA)
Temperature  
Mean Temperature 78 °F -  
Max Temperature 87 °F 78 °F 89 °F (1974)
Min Temperature 68 °F 61 °F 46 °F (1973)
Cooling Degree Days 12    
Growing Degree Days 28 (Base 50)    
Moisture  
Dew Point 60 °F    
Average Humidity 60    
Maximum Humidity 88    
Minimum Humidity 31    
Precipitation  
Precipitation 0.00 in - - ()
Sea Level Pressure  
Sea Level Pressure 30.14 in    
Wind  
Wind Speed 7 mph (East)    
Max Wind Speed 14 mph    
Max Gust Speed 18 mph    
Visibility 10 miles    
Events      
Averages and records for this station are not official NWS values.
T = Trace of Precipitation, MM = Missing Value Source: NWS Daily Summary

Daily Weather History Graph

Daily Weather History Graph

Search for Another Location

Airport or City:

Trip Planner

Search our weather history database for the weather conditions in past years. The results will help you decide how hot, cold, wet, or windy it might be!

Date:

Astronomy

Apr. 12, 2014 Rise Set
Actual Time 7:08 AM EDT 7:53 PM EDT
Civil Twilight 6:44 AM EDT 8:17 PM EDT
Nautical Twilight 6:16 AM EDT 8:45 PM EDT
Astronomical Twilight 5:47 AM EDT 9:14 PM EDT
Moon 5:41 PM EDT (4/12) 5:20 AM EDT (4/12)
Length of Visible Light 13h 33m
Length of Day
12h 45m
Waxing Gibbous, 93% of the Moon is Illuminated
Apr 12
Waxing Gibbous
Apr 15
Full
Apr 22
Last Quarter
Apr 29
New
May 6
First Quarter

Hourly Weather History & Observations

Time (EDT) Temp. Heat Index Dew Point Humidity Pressure Visibility Wind Dir Wind Speed Gust Speed Precip Events Conditions
12:15 AM 69.8 °F - 64.4 °F 83% 30.17 in 10.0 mi East 3.5 mph - N/A   Clear
12:35 AM 69.8 °F - 64.4 °F 83% 30.17 in 10.0 mi East 4.6 mph - N/A   Clear
12:55 AM 69.8 °F - 62.6 °F 78% 30.16 in 10.0 mi ENE 5.8 mph - N/A   Scattered Clouds
1:15 AM 69.8 °F - 62.6 °F 78% 30.16 in 10.0 mi ENE 5.8 mph - N/A   Clear
1:35 AM 69.8 °F - 62.6 °F 78% 30.16 in 10.0 mi ENE 6.9 mph - N/A   Clear
1:55 AM 69.8 °F - 64.4 °F 83% 30.15 in 10.0 mi ENE 6.9 mph - N/A   Clear
2:15 AM 69.8 °F - 64.4 °F 83% 30.15 in 10.0 mi ENE 5.8 mph - N/A   Mostly Cloudy
2:35 AM 69.8 °F - 64.4 °F 83% 30.14 in 10.0 mi ENE 4.6 mph - N/A   Overcast
2:55 AM 69.8 °F - 64.4 °F 83% 30.14 in 10.0 mi East 6.9 mph - N/A   Overcast
3:15 AM 69.8 °F - 62.6 °F 78% 30.14 in 10.0 mi ENE 5.8 mph - N/A   Scattered Clouds
3:35 AM 68.0 °F - 62.6 °F 83% 30.14 in 10.0 mi ENE 6.9 mph - N/A   Scattered Clouds
3:55 AM 68.0 °F - 62.6 °F 83% 30.14 in 10.0 mi ENE 8.1 mph - N/A   Scattered Clouds
4:15 AM 68.0 °F - 62.6 °F 83% 30.14 in 10.0 mi ENE 6.9 mph - N/A   Mostly Cloudy
4:35 AM 68.0 °F - 62.6 °F 83% 30.14 in 10.0 mi ENE 5.8 mph - N/A   Mostly Cloudy
4:55 AM 69.8 °F - 62.6 °F 78% 30.14 in 10.0 mi ENE 6.9 mph - N/A   Mostly Cloudy
5:15 AM 69.8 °F - 62.6 °F 78% 30.14 in 10.0 mi ENE 6.9 mph - N/A   Mostly Cloudy
5:35 AM 69.8 °F - 62.6 °F 78% 30.15 in 10.0 mi ENE 8.1 mph - N/A   Scattered Clouds
5:55 AM 68.0 °F - 62.6 °F 83% 30.15 in 10.0 mi ENE 5.8 mph - N/A   Clear
6:15 AM 68.0 °F - 62.6 °F 83% 30.15 in 10.0 mi ENE 5.8 mph - N/A   Clear
6:35 AM 68.0 °F - 62.6 °F 83% 30.15 in 10.0 mi ENE 9.2 mph - N/A   Clear
6:55 AM 68.0 °F - 62.6 °F 83% 30.16 in 10.0 mi ENE 6.9 mph - N/A   Clear
7:15 AM 68.0 °F - 62.6 °F 83% 30.17 in 10.0 mi ENE 6.9 mph - N/A   Clear
7:35 AM 68.0 °F - 64.4 °F 88% 30.18 in 10.0 mi ENE 5.8 mph - N/A   Clear
7:55 AM 68.0 °F - 64.4 °F 88% 30.18 in 10.0 mi ENE 5.8 mph - N/A   Scattered Clouds
8:15 AM 69.8 °F - 64.4 °F 83% 30.19 in 10.0 mi ENE 6.9 mph - N/A   Scattered Clouds
8:35 AM 69.8 °F - 64.4 °F 83% 30.19 in 10.0 mi ENE 6.9 mph - N/A   Mostly Cloudy
8:55 AM 73.4 °F - 64.4 °F 73% 30.19 in 10.0 mi East 8.1 mph - N/A   Scattered Clouds
9:15 AM 73.4 °F - 64.4 °F 73% 30.19 in 10.0 mi East 5.8 mph - N/A   Clear
9:35 AM 77.0 °F - 64.4 °F 65% 30.19 in 10.0 mi East 5.8 mph - N/A   Clear
9:55 AM 78.8 °F - 64.4 °F 61% 30.20 in 10.0 mi ESE 5.8 mph - N/A   Clear
10:15 AM 78.8 °F - 64.4 °F 61% 30.20 in 10.0 mi SE 9.2 mph - N/A   Clear
10:35 AM 78.8 °F - 64.4 °F 61% 30.20 in 10.0 mi ESE 9.2 mph - N/A   Clear
10:55 AM 80.6 °F 82.3 °F 64.4 °F 58% 30.20 in 10.0 mi SE 9.2 mph - N/A   Clear
11:15 AM 78.8 °F - 64.4 °F 61% 30.20 in 10.0 mi SE 6.9 mph - N/A   Scattered Clouds
11:35 AM 80.6 °F 82.3 °F 64.4 °F 58% 30.19 in 10.0 mi SE 6.9 mph - N/A   Mostly Cloudy
11:55 AM 82.4 °F 83.9 °F 64.4 °F 54% 30.19 in 10.0 mi SE 8.1 mph - N/A   Mostly Cloudy
12:15 PM 82.4 °F 83.9 °F 64.4 °F 54% 30.19 in 10.0 mi SSE 6.9 mph - N/A   Mostly Cloudy
12:35 PM 82.4 °F 83.4 °F 62.6 °F 51% 30.18 in 10.0 mi East 6.9 mph - N/A   Mostly Cloudy
12:55 PM 80.6 °F 81.8 °F 62.6 °F 54% 30.17 in 10.0 mi East 6.9 mph - N/A   Mostly Cloudy
1:15 PM 82.4 °F 82.9 °F 60.8 °F 48% 30.17 in 10.0 mi East 8.1 mph - N/A   Scattered Clouds
1:35 PM 86.0 °F 86.6 °F 62.6 °F 45% 30.16 in 10.0 mi ESE 6.9 mph - N/A   Clear
1:55 PM 84.2 °F 84.4 °F 60.8 °F 45% 30.15 in 10.0 mi East 6.9 mph - N/A   Scattered Clouds
2:15 PM 86.0 °F 85.4 °F 59.0 °F 40% 30.14 in 10.0 mi East 6.9 mph - N/A   Mostly Cloudy
2:35 PM 82.4 °F 82.5 °F 59.0 °F 45% 30.14 in 10.0 mi ENE 9.2 mph - N/A   Mostly Cloudy
2:55 PM 86.0 °F 85.4 °F 59.0 °F 40% 30.13 in 10.0 mi ESE 10.4 mph 16.1 mph N/A   Scattered Clouds
3:15 PM 87.8 °F 87.1 °F 59.0 °F 38% 30.12 in 10.0 mi ENE 8.1 mph - N/A   Scattered Clouds
3:35 PM 86.0 °F 84.5 °F 55.4 °F 35% 30.11 in 10.0 mi ESE 6.9 mph - N/A   Scattered Clouds
3:55 PM 86.0 °F 84.5 °F 55.4 °F 35% 30.10 in 10.0 mi ENE 11.5 mph - N/A   Scattered Clouds
4:15 PM 86.0 °F 84.5 °F 55.4 °F 35% 30.10 in 10.0 mi ESE 4.6 mph - N/A   Scattered Clouds
4:35 PM 87.8 °F 85.7 °F 53.6 °F 31% 30.09 in 10.0 mi East 10.4 mph - N/A   Scattered Clouds
4:55 PM 87.8 °F 85.7 °F 53.6 °F 31% 30.09 in 10.0 mi East 6.9 mph - N/A   Scattered Clouds
5:15 PM 82.4 °F 81.4 °F 53.6 °F 37% 30.09 in 10.0 mi East 6.9 mph - N/A   Scattered Clouds
5:35 PM 86.0 °F 84.5 °F 55.4 °F 35% 30.09 in 10.0 mi East 9.2 mph - N/A   Clear
5:55 PM 86.0 °F 84.2 °F 53.6 °F 33% 30.08 in 10.0 mi ESE 9.2 mph - N/A   Clear
6:15 PM 86.0 °F - 51.8 °F 31% 30.09 in 10.0 mi ENE 8.1 mph - N/A   Clear
6:35 PM 84.2 °F 82.8 °F 53.6 °F 35% 30.09 in 10.0 mi East 10.4 mph - N/A   Clear
6:55 PM 84.2 °F - 51.8 °F 33% 30.09 in 10.0 mi East 8.1 mph - N/A   Clear
7:15 PM 82.4 °F 81.4 °F 53.6 °F 37% 30.09 in 10.0 mi East 10.4 mph - N/A   Clear
7:35 PM 80.6 °F 80.3 °F 53.6 °F 39% 30.10 in 10.0 mi East 10.4 mph - N/A   Clear
7:55 PM 78.8 °F - 53.6 °F 42% 30.10 in 10.0 mi East 9.2 mph - N/A   Clear
8:15 PM 78.8 °F - 53.6 °F 42% 30.10 in 10.0 mi East 10.4 mph - N/A   Clear
8:35 PM 78.8 °F - 55.4 °F 44% 30.11 in 10.0 mi East 9.2 mph - N/A   Clear
8:55 PM 77.0 °F - 55.4 °F 47% 30.11 in 10.0 mi East 8.1 mph 16.1 mph N/A   Clear
9:15 PM 77.0 °F - 55.4 °F 47% 30.12 in 10.0 mi East 11.5 mph - N/A   Clear
9:35 PM 77.0 °F - 57.2 °F 50% 30.13 in 10.0 mi East 11.5 mph - N/A   Clear
9:55 PM 75.2 °F - 57.2 °F 53% 30.13 in 10.0 mi East 10.4 mph 18.4 mph N/A   Clear
10:15 PM 75.2 °F - 57.2 °F 53% 30.14 in 10.0 mi East 13.8 mph - N/A   Clear
10:35 PM 73.4 °F - 57.2 °F 57% 30.14 in 10.0 mi East 12.7 mph - N/A   Clear
10:55 PM 73.4 °F - 59.0 °F 61% 30.14 in 10.0 mi East 8.1 mph - N/A   Clear
11:15 PM 71.6 °F - 59.0 °F 64% 30.14 in 10.0 mi East 9.2 mph - N/A   Clear
11:35 PM 71.6 °F - 59.0 °F 64% 30.14 in 10.0 mi East 9.2 mph - N/A   Clear
11:55 PM 71.6 °F - 59.0 °F 64% 30.14 in 10.0 mi East 6.9 mph - N/A   Clear